Regional Weather Roundup
Issued by NWS

Home | Current Version | Previous Version | Graphics & Text | Print | Product List | Glossary On
Versions: 1 2 3 4 5 6 7 8 9 10 11 12 13 14 15 16 17 18 19 20 21 22 23 24 25 26 27 28 29 30 31 32 33 34 35 36 37 38 39 40 41 42 43 44 45 46 47 48 49 50
000
ASUS43 KLOT 282000
RWRIL

ILLINOIS REGIONAL WEATHER ROUNDUP
NATIONAL WEATHER SERVICE CHICAGO/ROMEOVILLE IL
200 PM CST WED JAN 28 2015

NOTE: "FAIR" INDICATES FEW OR NO CLOUDS BELOW 12,000 FEET WITH NO
SIGNIFICANT WEATHER AND/OR OBSTRUCTIONS TO VISIBILITY.

* THESE STATIONS ARE NOT UNDER NWS QUALITY CONTROL. THEY ALSO MAY NOT
  REPORT WEATHER SUCH AS PRECIPITATION OR FOG.

ILZ001-002-007-009-015-016-024-282100-
NORTHWEST ILLINOIS

CITY           SKY/WX    TMP DP  RH WIND       PRES   REMARKS
MOLINE         PTSUNNY   35  27  72 SE14      29.98F WCI  26
STERLING*      PTSUNNY   34  23  64 SE13G20   30.03F WCI  25
$$

ILZ003-004-008-010-011-017-018-282100-
NORTH CENTRAL ILLINOIS

CITY           SKY/WX    TMP DP  RH WIND       PRES   REMARKS
ROCKFORD       CLOUDY    32  22  66 SE16      30.08F WCI  21
$$

ILZ005-006-012>014-019>023-282100-
NORTHEAST ILLINOIS

CITY           SKY/WX    TMP DP  RH WIND       PRES   REMARKS
CHICAGO-OHARE  CLOUDY    33  19  56 SE14      30.11F WCI  23
CHICAGO-MIDWAY CLOUDY    35  19  52 S14G22    30.13F WCI  26
AURORA         PTSUNNY   34  22  61 SE20G25   30.10F WCI  23
WAUKEGAN       PTSUNNY   32  20  61 SE15      30.10F WCI  22
DUPAGE AIRPORT PTSUNNY   33  20  58 S15       30.10F WCI  23
WHEELING       PTSUNNY   34  19  54 S13       30.13F WCI  25
NORTHERLY ISL    N/A     34  21  59 SE8         N/A  WCI  27
$$

LMZ740>746-282100-
SOUTHERN LAKE MICHIGAN

STATION/POSITION SKY/WX   TEMP    WIND        PRES    VSBY  WAVE
                          AIR SEA DIR/SP/G                  HT/PER
                          (F)     (DEG/KT/KT) (MB)    (MI)  (FT/S)
WAUKEGAN HARBOR            32     150/ 17/ 21   N/A
HARRISON CRIB              31     160/ 17/ 21   N/A
BURNHAM HARBOR             34     160/ 10/ 17   N/A
CALUMET HARBOR             33     160/ 13/ 16   N/A
MICHIGAN CITY              31     150/ 13/ 17   N/A
$$

ILZ025>027-034>036-040-047-049-050-058-095>099-282100-
WEST-CENTRAL ILLINOIS

CITY           SKY/WX    TMP DP  RH WIND       PRES   REMARKS
QUINCY         SUNNY     43  31  62 SE14G24   29.94F
$$

ILZ028>032-037-038-041>044-048-051>054-059>061-282100-
CENTRAL ILLINOIS

CITY           SKY/WX    TMP DP  RH WIND       PRES   REMARKS
DECATUR        MOSUNNY   40  29  64 SE20      30.10F
PEORIA         PTSUNNY   40  30  67 S17G26    30.03F
SPRINGFIELD    MOSUNNY   42  31  64 S17G30    30.05F
TAYLORVILLE    NOT AVBL
$$

ILZ033-039-045-046-055>057-062-063-282100-
EAST-CENTRAL ILLINOIS

CITY           SKY/WX    TMP DP  RH WIND       PRES   REMARKS
CHAMPAIGN      MOSUNNY   36  27  69 SE15G24   30.13F WCI  27
MATTOON        SUNNY     37  25  61 S20G26    30.13F WCI  27
$$

ILZ079-100>102-282100-
SOUTHWEST ILLINOIS

CITY           SKY/WX    TMP DP  RH WIND       PRES   REMARKS
ALTON          MOSUNNY   45  30  57 SE17      30.07F
BELLEVILLE     SUNNY     46  32  57 SE15G23   30.08F
CAHOKIA*       SUNNY     47  32  56 S13G26    30.07F
$$

ILZ064>066-069>071-074>076-080>082-084>086-088>090-092>094-282100-
SOUTH-CENTRAL ILLINOIS

CITY           SKY/WX    TMP DP  RH WIND       PRES   REMARKS
CARBONDALE     MOSUNNY   46  30  53 S16       30.16F
MARION         MOSUNNY   46  32  57 S14       30.17F
MT. VERNON     SUNNY     45  32  61 SE14      30.16F
$$

ILZ067-068-072-073-078-083-087-091-282100-
SOUTHEAST ILLINOIS

CITY           SKY/WX    TMP DP  RH WIND       PRES   REMARKS
LAWRENCEVILLE  SUNNY     41  25  53 SE17      30.21F
$$

ABBREVIATIONS USED IN REMARKS
   TC - TEMPERATURE IN CELSIUS
  WCI - WIND CHILL INDEX
   HX - HEAT INDEX
  VSB - VISIBILITY
$$



USA.gov is the U.S. government's official web portal to all federal, state and local government web resources and services.